Tracking 31027 objects as of 19-Jul-2025
HD Live streaming from Space Station
objects crossing your sky now

TITAN 3C TRANSTAGE DEB

Track TITAN 3C TRANSTAGE DEB now!


NORAD ID: 27866
Int'l Code: 1965-108BM
Perigee: 1,283.0 km
Apogee: 30,592.9 km
Inclination: 26.6 °
Period: 552.7 minutes
Semi major axis: 22308 km
RCS: 0.0979 m2 (small)
Launch date: December 21, 1965
Source: United States (US)
Launch site: AIR FORCE EASTERN TEST RANGE (AFETR)

Note: This is SATELLITE DEBRIS
Your satellite tracking list
FREGAT DEB
Track 1 satellite(s)




NASA's NSSDC Master Catalog

Two Line Element Set (TLE):
1 27866U 65108BM  25195.52086215  .00000054  00000-0  00000-0 0  9999
2 27866  26.5873 183.3329 6569080 233.8999 343.4048  2.60545643114960
Source of the keplerian elements: AFSPC